This is the latest recevied weather packets stored in our database for station/object AB4KY. If no packets are shown the sender has not sent any weather packets the latest 10 day(s).
| Time | Temp. | Humidity | Pressure | Rain* | Wind** | Luminosity | Snow |
|---|---|---|---|---|---|---|---|
| 1777507339 | 15.56° C | 70% | 1010.1 hPa | 0 mm | - | 10 W/m² | - |
| 1777507037 | 15.56° C | 69% | 1009.9 hPa | 0 mm | - | 12 W/m² | - |
| 1777506734 | 16.11° C | 67% | 1010 hPa | 0 mm | - | 13 W/m² | - |
| 1777506430 | 16.11° C | 65% | 1009.8 hPa | 0 mm | - | 12 W/m² | - |
| 1777506126 | 16.11° C | 65% | 1009.9 hPa | 0 mm | - | 12 W/m² | - |
| 1777505821 | 16.67° C | 65% | 1009.7 hPa | 0 mm | - | 16 W/m² | - |
| 1777505518 | 17.22° C | 62% | 1009.7 hPa | 0 mm | - | 18 W/m² | - |
| 1777505215 | 16.67° C | 63% | 1009.6 hPa | 0 mm | - | 28 W/m² | - |
| 1777504912 | 16.67° C | 62% | 1009.9 hPa | 0 mm | - | 32 W/m² | - |
| 1777504609 | 16.67° C | 63% | 1009.9 hPa | 0 mm | - | 20 W/m² | - |
| 1777504305 | 16.67° C | 65% | 1010.1 hPa | 0 mm | - | 18 W/m² | - |
| 1777504000 | 17.22° C | 63% | 1009.9 hPa | 0 mm | - | 18 W/m² | - |
| 1777503697 | 17.78° C | 62% | 1010 hPa | 0 mm | - | 28 W/m² | - |
| 1777503394 | 17.78° C | 63% | 1009.8 hPa | 0 mm | - | 64 W/m² | - |
| 1777503090 | 17.78° C | 62% | 1010 hPa | 0 mm | - | 66 W/m² | - |
| 1777502787 | 17.78° C | 59% | 1010 hPa | 0 mm | - | 27 W/m² | - |
| 1777502484 | 18.33° C | 63% | 1009.8 hPa | 0 mm | - | 35 W/m² | - |
| 1777502181 | 17.78° C | 63% | 1009.8 hPa | 0 mm | - | 60 W/m² | - |
| 1777501879 | 17.78° C | 61% | 1009.8 hPa | 0 mm | - | 28 W/m² | - |
| 1777501576 | 18.33° C | 60% | 1009.9 hPa | 0 mm | - | 31 W/m² | - |
| 1777501273 | 18.33° C | 57% | 1009.8 hPa | 0 mm | - | 38 W/m² | - |
| 1777500971 | 18.33° C | 60% | 1009.9 hPa | 0 mm | - | 29 W/m² | - |
| 1777500668 | 18.33° C | 62% | 1009.9 hPa | 0 mm | - | 37 W/m² | - |
| 1777500364 | 18.89° C | 63% | 1009.9 hPa | 0 mm | - | 66 W/m² | - |
| 1777500061 | 18.33° C | 62% | 1009.6 hPa | 0 mm | - | 38 W/m² | - |
* Rain latest hour (hover to see other rain measurements)
** Current wind speed in m/s (hover to see current wind gust speed)